[Iaude] MPEC B65: 2017 AC5 [a=2.33,e=0.49,i=11.3,H=20.09]
    mpec at marsden.cfa.harvard.edu 
    mpec at marsden.cfa.harvard.edu
       
    Sat Jan 20 09:16:52 EST 2024
    
    
  
M.P.E.C. 2024-B65                              Issued 2024 January 20, 14:15 UT
     The Minor Planet Electronic Circulars contain information on unusual
         minor planets, routine data on comets and natural satellites,
         and occasional editorial announcements.  They are published
    on behalf of Division F of the International Astronomical Union by the
          Minor Planet Center, Smithsonian Astrophysical Observatory,
                          Cambridge, MA 02138, U.S.A.
			  
             Prepared using the Tamkin Foundation Computer Network
                              MPC at CFA.HARVARD.EDU
            URL https://www.minorplanetcenter.net/    ISSN 1523-6714
                                    2017 AC5                                    
                           Revision to MPEC 2017-A52                            
Additional Observations:
     K17A05C KC2024 01 10.34772 06 36 09.28 +00 43 31.1          21.2 RVEB065291
     K17A05C KC2024 01 10.36071 06 36 08.16 +00 43 32.5          21.8 RVEB065291
     K17A05C KC2024 01 10.37370 06 36 07.04 +00 43 34.1          22.1 RVEB065291
     K17A05C KC2024 01 19.20707406 24 00.150+01 17 59.20         21.92GVEB065I52
     K17A05C KC2024 01 19.21699906 23 59.350+01 18 02.70         21.05GVEB065I52
     K17A05C KC2024 01 19.23684606 23 57.690+01 18 09.00         21.43GVEB065I52
     K17A05C KC2024 01 19.24806206 23 56.770+01 18 12.20               VEB065I52
Observer details:
291 LPL/Spacewatch II.  Observer J. V. Scotti.  1.8-m f/2.7 reflector + CCD.
I52 Steward Observatory, Mt. Lemmon Station.  Observer R. A. Kowalski.
    Measurers E. C. Beshore, D. Fay, J. B. Fazekas, D. C. Fuls, A. R. Gibbs,
    A. D. Grauer, H. Groeller, J. K. Hogan, R. A. Kowalski, S. M. Larson, G.
    J. Leonard, D. Rankin, R. L. Seaman, F. C. Shelly, K. W. Wierzchos.  1.0-m
    prime focus + CCD.
First and last observations above in comparison with prediction:
Residuals in seconds of arc, reference and Delta-T
240110 291  3.3-  0.7-    240119 I52  3.2-  0.1-    MPO782332   -0.00 days
Orbital elements:
2017 AC5                                                 Earth MOID = 0.1917 AU
Epoch 2023 Sept. 13.0 TT = JDT 2460200.5                Veres                   
M 288.62228              (2000.0)            P               Q                  
n   0.27755760     Peri.   23.52322     -0.94959761     +0.31293518             
a   2.3275586      Node   174.61309     -0.30957293     -0.92699025             
e   0.4932263      Incl.   11.25858     -0.04928474     -0.20678650             
P   3.55           H   20.09          G   0.15           U   0                  
Residuals in seconds of arc
170103 F51  0.2-  0.0     170316 160  0.0   0.1-    170405 W34  0.5+  0.1-
170103 F51  0.0   0.0     170317 W25  0.1+  0.1-    170405 W34  0.1-  0.1+
170103 F51  0.1-  0.0     170317 W25  0.4+  0.3+    170405 T08  1.0-  0.7-
170104 F51  0.2-  0.2+    170317 G96  0.1+  0.1-    170405 T08  0.1+  0.1+
170104 F51  0.2-  0.0     170317 G96  0.3+  0.0     170405 T08  0.0   0.1-
170105 705  0.2+  0.2+    170317 G96  0.2+  0.1-    170405 T08  0.9-  0.3-
170105 705  0.3-  0.5+    170317 G96  0.2+  0.0     170406 H45  0.3-  0.1-
170105 705  0.3-  0.2-    170317 691  0.1-  0.1-    170406 H45  0.1-  0.2-
170107 291  0.3-  0.0     170317 691  0.3-  0.0     170406 H45  0.4-  0.3-
170107 291  0.2-  0.1+    170317 691  0.1-  0.1-    170406 H45  0.4-  0.2-
170107 291  0.7-  0.1-    170318 H21  0.2-  0.1-    170406 H45  0.1-  0.3-
170109 695  0.1-  0.2+    170318 H21  0.1-  0.0     170406 H45  0.3-  0.3-
170109 695  0.1-  0.4+    170318 H21  0.2-  0.0     170406 K38  0.1+  0.0
170109 695  0.2+  0.3+    170318 H21  0.2-  0.0     170406 K38  0.1+  0.1+
170118 807  0.0   0.1-    170318 H21  0.2-  0.2-    170406 K38  0.1-  0.2+
170118 807  0.2-  0.2-    170318 F51  0.2-  0.0     170406 160  0.5-  0.0
170118 807  0.3-  0.0     170318 F51  0.3-  0.0     170406 160  0.1-  0.0
170119 474  0.3-  0.4-    170318 F51  0.2-  0.0     170406 160  0.1+  0.4+
170119 474  0.2-  0.0     170319 703  0.2+  0.0     170406 Z80  0.2+  0.3+
170119 474  0.4+  0.2+    170319 703  0.2+  0.3+    170406 Z80  0.4+  0.1-
170119 474  0.1-  0.3+    170319 703  0.1+  0.1+    170406 Z80  0.2+  0.7-
170127 474  0.0   0.1-    170319 703  0.2+  0.0     170407 H21  0.1-  0.0
170127 474  0.0   0.1-    170320 W25  0.1+  0.1-    170407 H21  0.0   0.5-
170127 474  0.2-  0.2-    170320 W25  0.0   0.2-    170407 H21  0.0   0.2-
170130 691  0.0   0.2-    170320 H45  0.1-  0.0     170407 160  0.4+  0.2-
170130 691  0.2+  0.0     170320 H45  0.3-  0.2-    170407 160  0.3+  0.3-
170130 691  0.1-  0.1-    170320 H45  0.2-  0.0     170407 160  0.2-  0.4-
170130 691  0.1+  0.0     170320 H45  0.0   0.2-    170407 203  0.0   0.0
170130 691  0.1-  0.0     170320 H45  0.1-  0.1-    170407 203  0.0   0.4-
170201 691  0.0   0.1-    170320 H45  0.2-  0.1-    170408 H45  0.0   0.1-
170201 691  0.0   0.0     170320 T08  0.5-  0.5-    170408 H45  0.2-  0.3-
170201 691  0.2-  0.3+    170320 T05  0.1+  0.7-    170408 H45  0.4-  0.1-
170202 H21  0.2+  0.0     170320 T08  0.5-  0.1+    170408 H45  0.2-  0.5-
170202 H21  0.3+  0.0     170320 T05  0.1-  0.2-    170408 H45  0.2+  0.3-
170202 H21  0.0   0.0     170320 T08  0.4-  0.1-    170408 H45  0.5-  0.3-
170202 F51  0.1+  0.0     170320 T05  0.2-  0.0     170408 160  0.2+  0.1-
170202 F51  0.0   0.0     170320 T08  0.3-  0.3+    170408 160  0.2-  0.0
170202 F51  0.1+  0.0     170320 T05  0.0   0.6-    170408 160  0.5-  0.2-
170202 F51  0.0   0.0     170320 Z80  0.2-  0.1+    170412 H21  0.1+  0.1+
170205 G45  0.3-  0.4+    170320 Z80  0.3-  0.2-    170412 H21  0.3-  0.0
170205 G45  0.0   0.1+    170320 Z80  0.7-  0.0     170412 H21  0.2+  0.2-
170205 G45  0.2+  0.2-    170320 Z80  0.0   0.6-    170413 D29  0.3-  0.4-
170205 G45  0.1+  0.2-    170321 G48  0.3-  0.1+    170413 D29 (0.5-  1.8+)
170210 H21 (2.7+  0.3-)   170321 G48  0.3-  0.3-    170413 D29  0.4-  0.0
170210 H21 (2.7+  0.2-)   170321 G48  0.2-  0.1+    170413 160  0.3+  0.0
170210 H21 (2.8+  0.0 )   170321 G48  0.7-  0.2+    170413 160  0.1+  0.1-
170216 807  0.0   0.2+    170321 H45  0.1+  0.1-    170413 160  0.1+  0.1+
170216 807  0.0   0.2+    170321 H45  0.2-  0.4-    170414 204  0.2+  0.1-
170216 807  0.0   0.3+    170321 H45  0.1-  0.1-    170414 204  0.2+  0.1-
170216 H21  0.4+  0.2+    170321 H45  0.2-  0.5-    170414 204  0.1+  0.0
170216 H21  0.3+  0.1+    170321 H45  0.1+  0.0     170414 H21  1.2-  0.6-
170216 H21  0.2+  0.2+    170321 H45  0.1-  0.1-    170414 H21  1.3-  0.7-
170216 Q60  0.6-  0.5+    170321 T08  0.8-  0.6-    170414 H21  1.2-  0.6-
170216 Q60  0.0   0.6-    170321 T08  0.6+  0.8+    170414 H21  1.4-  0.8-
170216 Q60  0.5+  0.9-    170321 T08  0.1-  0.4-    170414 H21  1.4-  0.7-
170217 H21 (0.8+  1.3+)   170321 T08 (1.0-  1.8-)   170414 L04  0.2-  0.3+
170217 H21 (1.1+  1.4+)   170322 L04  0.1+  0.4-    170414 L04  0.2-  0.1+
170217 H21 (0.9+  1.3+)   170322 L04  0.5+  0.1+    170415 I15  0.2+  0.0
170219 204  0.3+  0.5-    170322 L04  0.3+  0.4-    170415 I15  0.1-  0.0
170219 204  0.0   0.0     170322 L04  0.1+  0.3+    170415 I15  0.0   0.0
170221 G45  0.0   0.0     170322 Z21  0.0   0.1-    170415 G48  0.7+  0.5-
170221 G45  0.2+  0.2+    170322 Z21  0.1+  0.1-    170415 G48  0.2+  0.8+
170221 G45  0.0   0.1-    170322 Z21  0.1+  0.1-    170415 G48  0.4+  0.3+
170221 G45  0.2+  0.2-    170322 Z21  0.0   0.1-    170415 F51  0.1+  0.1+
170221 G45  0.4+  0.3+    170323 W25  0.1+  0.5+    170415 F51  0.1+  0.0
170221 G45  0.3+  0.1+    170323 W25  0.5+  0.5+    170415 F51  0.2+  0.1+
170221 G45  0.1+  0.4+    170323 H21  0.0   0.1-    170415 F51  0.2+  0.1+
170221 G45  0.0   0.4+    170323 H21  0.1+  0.1-    170416 H21  0.1-  0.2+
170221 G45  0.1+  0.4+    170323 H21  0.2+  0.1+    170416 H21  0.2-  0.3+
170221 G45  0.0   0.5+    170323 H21  0.2+  0.0     170416 H21  0.0   0.6+
170221 G45  0.7+  0.5+    170323 H21  0.2+  0.1-    170416 H21  0.2-  0.3+
170221 G45  0.3+  0.1+    170323 H21  0.3+  0.1-    170416 H21  0.2+  0.2-
170221 G45  0.4+  0.0     170323 H21  0.1+  0.1+    170417 T08  0.7+  0.1-
170222 W88  0.1-  0.1+    170323 Z21  0.0   0.2-    170417 T08  0.6+  0.0
170222 W88  1.0-  0.4-    170323 Z21  0.1-  0.0     170417 T08  0.2+  0.6-
170222 G45  0.3+  0.1+    170323 Z21  0.0   0.1-    170417 T08  0.3+  0.4-
170222 G45  0.4+  0.1+    170323 Z21  0.3+  0.2-    170418 130  0.2+  0.0
170222 G45  0.1+  0.2+    170324 H45  0.4-  0.1+    170418 130  0.1+  0.0
170222 G45  0.4+  0.0     170324 H45  0.2-  0.4+    170418 130  0.2+  0.4+
170222 H15  0.1+  0.5-    170324 H45  0.1+  0.4-    170418 130  0.1+  0.2+
170222 H15  0.1-  1.2-    170324 H45  0.1+  0.1+    170419 H21  0.2+  0.0
170222 H15  0.8+  0.1-    170324 H45  0.6-  0.2-    170419 H21  0.2+  0.1+
170224 703  0.2+  0.5+    170324 H45  0.2-  0.2-    170419 H21  0.1+  0.2+
170224 703  0.4+  0.4-    170326 703  0.3+  0.3+    170419 H21  0.1+  0.0
170224 G96  0.8+  0.2+    170326 703  0.2+  0.0     170419 H21  0.0   0.0
170224 703  0.7+  0.3+    170326 703  0.4+  0.1+    170419 H21  0.1+  0.0
170224 G96  0.0   0.1-    170326 703  0.5+  0.1+    170419 H21  0.1+  0.1-
170224 703  0.2+  0.1+    170327 W84  0.1+  0.1+    170420 160 (1.4+  0.8-)
170224 G96  0.4+  0.2+    170327 691  0.2-  0.3-    170420 160 (1.0+  0.6-)
170224 G96  0.3+  0.0     170327 691  0.1-  0.0     170420 160 (1.3+  0.2+)
170224 G45  0.4+  0.2+    170327 691  0.1-  0.1-    170420 H45  0.2-  0.1-
170224 G45  0.2+  0.2+    170327 D29  0.0   0.0     170420 H45  0.1+  0.1-
170224 G45  0.2+  0.0     170327 D29  0.8+  0.5+    170420 H45  0.1+  0.1-
170224 G45  0.7+  0.0     170327 D29  0.2+  0.1+    170420 H45  0.1+  0.0
170224 G45  0.2+  0.1-    170327 C95  0.1+  0.2+    170420 H45  0.0   0.3-
mailing list